Year,Month,Day,Hour,Minute,Value (Times are PST for windspeed in km/hr)
2021,08,19,00,00,0.00
2021,08,19,00,01,0.00
2021,08,19,00,02,0.00
2021,08,19,00,03,0.00
2021,08,19,00,04,0.00
2021,08,19,00,05,0.00
2021,08,19,00,06,0.00
2021,08,19,00,07,0.00
2021,08,19,00,08,0.00
2021,08,19,00,09,0.00
2021,08,19,00,10,0.00
2021,08,19,00,11,0.00
2021,08,19,00,12,0.00
2021,08,19,00,13,0.00
2021,08,19,00,14,0.00
2021,08,19,00,15,0.00
2021,08,19,00,16,0.00
2021,08,19,00,17,0.00
2021,08,19,00,18,0.00
2021,08,19,00,19,0.00
2021,08,19,00,20,0.00
2021,08,19,00,21,0.00
2021,08,19,00,22,0.00
2021,08,19,00,23,0.00
2021,08,19,00,24,0.00
2021,08,19,00,25,0.00
2021,08,19,00,26,0.00
2021,08,19,00,27,0.00
2021,08,19,00,28,0.00
2021,08,19,00,29,0.00
2021,08,19,00,30,0.00
2021,08,19,00,31,0.00
2021,08,19,00,32,0.00
2021,08,19,00,33,0.00
2021,08,19,00,34,0.00
2021,08,19,00,35,0.00
2021,08,19,00,36,0.00
2021,08,19,00,37,0.00
2021,08,19,00,38,0.00
2021,08,19,00,39,0.00
2021,08,19,00,40,0.00
2021,08,19,00,41,0.00
2021,08,19,00,42,0.00
2021,08,19,00,43,0.00
2021,08,19,00,44,0.00
2021,08,19,00,45,0.00
2021,08,19,00,46,0.00
2021,08,19,00,47,0.00
2021,08,19,00,48,0.00
2021,08,19,00,49,0.00
2021,08,19,00,50,0.00
2021,08,19,00,51,0.00
2021,08,19,00,52,0.00
2021,08,19,00,53,0.00
2021,08,19,00,54,0.00
2021,08,19,00,55,0.00
2021,08,19,00,56,0.00
2021,08,19,00,57,0.00
2021,08,19,00,58,0.00
2021,08,19,00,59,0.00
2021,08,19,01,00,0.00
2021,08,19,01,01,0.00
2021,08,19,01,02,0.00
2021,08,19,01,03,0.00
2021,08,19,01,04,0.00
2021,08,19,01,05,0.00
2021,08,19,01,06,0.00
2021,08,19,01,07,0.00
2021,08,19,01,08,0.00
2021,08,19,01,09,0.00
2021,08,19,01,10,0.00
2021,08,19,01,11,0.00
2021,08,19,01,12,0.00
2021,08,19,01,13,0.00
2021,08,19,01,14,0.00
2021,08,19,01,15,0.00
2021,08,19,01,16,0.00
2021,08,19,01,17,0.00
2021,08,19,01,18,0.00
2021,08,19,01,19,0.00
2021,08,19,01,20,0.00
2021,08,19,01,21,0.00
2021,08,19,01,22,0.00
2021,08,19,01,23,0.00
2021,08,19,01,24,0.00
2021,08,19,01,25,0.00
2021,08,19,01,26,0.00
2021,08,19,01,27,0.00
2021,08,19,01,28,0.00
2021,08,19,01,29,0.00
2021,08,19,01,30,0.00
2021,08,19,01,31,0.00
2021,08,19,01,32,0.00
2021,08,19,01,33,0.00
2021,08,19,01,34,0.00
2021,08,19,01,35,0.00
2021,08,19,01,36,0.00
2021,08,19,01,37,0.00
2021,08,19,01,38,0.00
2021,08,19,01,39,0.00
2021,08,19,01,40,0.00
2021,08,19,01,41,0.00
2021,08,19,01,42,0.00
2021,08,19,01,43,0.00
2021,08,19,01,44,0.00
2021,08,19,01,45,0.00
2021,08,19,01,46,0.00
2021,08,19,01,47,0.00
2021,08,19,01,48,0.00
2021,08,19,01,49,0.00
2021,08,19,01,50,0.00
2021,08,19,01,51,0.00
2021,08,19,01,52,0.00
2021,08,19,01,53,0.00
2021,08,19,01,54,0.00
2021,08,19,01,55,0.00
2021,08,19,01,56,0.00
2021,08,19,01,57,0.00
2021,08,19,01,58,0.00
2021,08,19,01,59,0.40
2021,08,19,02,00,2.40
2021,08,19,02,01,0.00
2021,08,19,02,02,0.00
2021,08,19,02,03,0.00
2021,08,19,02,04,0.00
2021,08,19,02,05,0.00
2021,08,19,02,06,0.00
2021,08,19,02,07,0.00
2021,08,19,02,08,0.00
2021,08,19,02,09,0.00
2021,08,19,02,10,0.00
2021,08,19,02,11,0.00
2021,08,19,02,12,0.00
2021,08,19,02,13,0.00
2021,08,19,02,14,0.00
2021,08,19,02,15,0.00
2021,08,19,02,16,0.00
2021,08,19,02,17,0.00
2021,08,19,02,18,0.00
2021,08,19,02,19,0.00
2021,08,19,02,20,0.00
2021,08,19,02,21,0.00
2021,08,19,02,22,0.00
2021,08,19,02,23,0.00
2021,08,19,02,24,3.50
2021,08,19,02,25,3.70
2021,08,19,02,26,1.60
2021,08,19,02,27,0.70
2021,08,19,02,28,0.00
2021,08,19,02,29,0.00
2021,08,19,02,30,0.00
2021,08,19,02,31,0.00
2021,08,19,02,32,0.00
2021,08,19,02,33,0.00
2021,08,19,02,34,0.00
2021,08,19,02,35,0.00
2021,08,19,02,36,0.00
2021,08,19,02,37,0.00
2021,08,19,02,38,0.00
2021,08,19,02,39,0.00
2021,08,19,02,40,0.00
2021,08,19,02,41,0.00
2021,08,19,02,42,0.00
2021,08,19,02,43,0.00
2021,08,19,02,44,0.00
2021,08,19,02,45,0.00
2021,08,19,02,46,0.00
2021,08,19,02,47,0.00
2021,08,19,02,48,0.00
2021,08,19,02,49,0.00
2021,08,19,02,50,0.00
2021,08,19,02,51,0.00
2021,08,19,02,52,0.00
2021,08,19,02,53,0.00
2021,08,19,02,54,0.00
2021,08,19,02,55,0.00
2021,08,19,02,56,0.00
2021,08,19,02,57,0.00
2021,08,19,02,58,0.00
2021,08,19,02,59,0.00
2021,08,19,03,00,0.00
2021,08,19,03,01,0.00
2021,08,19,03,02,0.00
2021,08,19,03,03,0.00
2021,08,19,03,04,0.00
2021,08,19,03,05,0.00
2021,08,19,03,06,0.00
2021,08,19,03,07,0.00
2021,08,19,03,08,0.00
2021,08,19,03,09,0.00
2021,08,19,03,10,0.00
2021,08,19,03,11,0.00
2021,08,19,03,12,0.00
2021,08,19,03,13,0.00
2021,08,19,03,14,0.00
2021,08,19,03,15,0.00
2021,08,19,03,16,0.00
2021,08,19,03,17,0.00
2021,08,19,03,18,0.00
2021,08,19,03,19,0.00
2021,08,19,03,20,0.00
2021,08,19,03,21,0.00
2021,08,19,03,22,0.00
2021,08,19,03,23,0.00
2021,08,19,03,24,0.00
2021,08,19,03,25,0.00
2021,08,19,03,26,0.00
2021,08,19,03,27,0.00
2021,08,19,03,28,0.00
2021,08,19,03,29,0.00
2021,08,19,03,30,0.00
2021,08,19,03,31,0.00
2021,08,19,03,32,0.00
2021,08,19,03,33,0.00
2021,08,19,03,34,0.00
2021,08,19,03,35,0.00
2021,08,19,03,36,0.00
2021,08,19,03,37,0.00
2021,08,19,03,38,0.00
2021,08,19,03,39,0.00
2021,08,19,03,40,0.00
2021,08,19,03,41,0.00
2021,08,19,03,42,0.00
2021,08,19,03,43,0.00
2021,08,19,03,44,0.00
2021,08,19,03,45,0.10
2021,08,19,03,46,0.00
2021,08,19,03,47,0.00
2021,08,19,03,48,0.00
2021,08,19,03,49,0.00
2021,08,19,03,50,0.00
2021,08,19,03,51,0.00
2021,08,19,03,52,0.00
2021,08,19,03,53,0.00
2021,08,19,03,54,0.00
2021,08,19,03,55,0.00
2021,08,19,03,56,0.00
2021,08,19,03,57,0.00
2021,08,19,03,58,0.00
2021,08,19,03,59,0.00
2021,08,19,04,00,0.00
2021,08,19,04,01,0.00
2021,08,19,04,02,0.00
2021,08,19,04,03,0.00
2021,08,19,04,04,0.00
2021,08,19,04,05,0.00
2021,08,19,04,06,0.00
2021,08,19,04,07,0.00
2021,08,19,04,08,0.00
2021,08,19,04,09,0.00
2021,08,19,04,10,0.00
2021,08,19,04,11,0.00
2021,08,19,04,12,0.00
2021,08,19,04,13,0.00
2021,08,19,04,14,0.00
2021,08,19,04,15,0.00
2021,08,19,04,16,0.00
2021,08,19,04,17,0.00
2021,08,19,04,18,0.00
2021,08,19,04,19,0.00
2021,08,19,04,20,0.00
2021,08,19,04,21,0.00
2021,08,19,04,22,1.50
2021,08,19,04,23,0.50
2021,08,19,04,24,0.00
2021,08,19,04,25,0.00
2021,08,19,04,26,0.00
2021,08,19,04,27,0.00
2021,08,19,04,28,0.00
2021,08,19,04,29,0.00
2021,08,19,04,30,0.00
2021,08,19,04,31,0.00
2021,08,19,04,32,0.00
2021,08,19,04,33,0.00
2021,08,19,04,34,0.00
2021,08,19,04,35,0.00
2021,08,19,04,36,0.00
2021,08,19,04,37,0.00
2021,08,19,04,38,0.00
2021,08,19,04,39,0.00
2021,08,19,04,40,0.00
2021,08,19,04,41,0.00
2021,08,19,04,42,0.00
2021,08,19,04,43,0.00
2021,08,19,04,44,0.00
2021,08,19,04,45,0.00
2021,08,19,04,46,0.00
2021,08,19,04,47,0.00
2021,08,19,04,48,0.00
2021,08,19,04,49,0.00
2021,08,19,04,50,0.00
2021,08,19,04,51,0.00
2021,08,19,04,52,0.00
2021,08,19,04,53,0.00
2021,08,19,04,54,0.00
2021,08,19,04,55,0.00
2021,08,19,04,56,0.00
2021,08,19,04,57,0.00
2021,08,19,04,58,0.00
2021,08,19,04,59,0.00
2021,08,19,05,00,0.00
2021,08,19,05,01,0.00
2021,08,19,05,02,0.00
2021,08,19,05,03,0.00
2021,08,19,05,04,0.00
2021,08,19,05,05,0.00
2021,08,19,05,06,0.00
2021,08,19,05,07,0.00
2021,08,19,05,08,0.00
2021,08,19,05,09,0.00
2021,08,19,05,10,0.00
2021,08,19,05,11,0.00
2021,08,19,05,12,0.00
2021,08,19,05,13,0.00
2021,08,19,05,14,0.00
2021,08,19,05,15,0.00
2021,08,19,05,16,0.00
2021,08,19,05,17,0.00
2021,08,19,05,18,0.00
2021,08,19,05,19,0.00
2021,08,19,05,20,0.00
2021,08,19,05,21,0.00
2021,08,19,05,22,0.00
2021,08,19,05,23,0.00
2021,08,19,05,24,0.00
2021,08,19,05,25,0.00
2021,08,19,05,26,0.00
2021,08,19,05,27,0.00
2021,08,19,05,28,0.00
2021,08,19,05,29,0.00
2021,08,19,05,30,0.00
2021,08,19,05,31,0.00
2021,08,19,05,32,0.00
2021,08,19,05,33,0.00
2021,08,19,05,34,0.00
2021,08,19,05,35,0.00
2021,08,19,05,36,0.00
2021,08,19,05,37,0.00
2021,08,19,05,38,0.00
2021,08,19,05,39,0.00
2021,08,19,05,40,0.00
2021,08,19,05,41,0.00
2021,08,19,05,42,0.00
2021,08,19,05,43,0.00
2021,08,19,05,44,0.00
2021,08,19,05,45,0.00
2021,08,19,05,46,0.00
2021,08,19,05,47,0.00
2021,08,19,05,48,0.00
2021,08,19,05,49,0.00
2021,08,19,05,50,0.00
2021,08,19,05,51,0.00
2021,08,19,05,52,0.00
2021,08,19,05,53,0.00
2021,08,19,05,54,0.00
2021,08,19,05,55,0.00
2021,08,19,05,56,0.00
2021,08,19,05,57,0.00
2021,08,19,05,58,0.00
2021,08,19,05,59,0.00
2021,08,19,06,00,0.00
2021,08,19,06,01,0.00
2021,08,19,06,02,0.00
2021,08,19,06,03,0.00
2021,08,19,06,04,0.00
2021,08,19,06,05,0.00
2021,08,19,06,06,0.00
2021,08,19,06,07,0.00
2021,08,19,06,08,0.00
2021,08,19,06,09,0.00
2021,08,19,06,10,0.00
2021,08,19,06,11,0.00
2021,08,19,06,12,0.00
2021,08,19,06,13,0.00
2021,08,19,06,14,0.00
2021,08,19,06,15,0.00
2021,08,19,06,16,0.00
2021,08,19,06,17,0.00
2021,08,19,06,18,0.00
2021,08,19,06,19,0.00
2021,08,19,06,20,0.00
2021,08,19,06,21,0.00
2021,08,19,06,22,0.00
2021,08,19,06,23,0.00
2021,08,19,06,24,0.00
2021,08,19,06,25,0.00
2021,08,19,06,26,0.00
2021,08,19,06,27,0.00
2021,08,19,06,28,0.00
2021,08,19,06,29,0.00
2021,08,19,06,30,0.00
2021,08,19,06,31,0.00
2021,08,19,06,32,0.00
2021,08,19,06,33,0.00
2021,08,19,06,34,0.00
2021,08,19,06,35,0.00
2021,08,19,06,36,0.00
2021,08,19,06,37,0.00
2021,08,19,06,38,0.00
2021,08,19,06,39,3.80
2021,08,19,06,40,2.30
2021,08,19,06,41,0.50
2021,08,19,06,42,0.10
2021,08,19,06,43,0.00
2021,08,19,06,44,0.00
2021,08,19,06,45,0.00
2021,08,19,06,46,0.00
2021,08,19,06,47,2.10
2021,08,19,06,48,4.10
2021,08,19,06,49,1.70
2021,08,19,06,50,4.20
2021,08,19,06,51,3.30
2021,08,19,06,52,2.90
2021,08,19,06,53,2.40
2021,08,19,06,54,2.10
2021,08,19,06,55,2.50
2021,08,19,06,56,0.70
2021,08,19,06,57,0.10
2021,08,19,06,58,0.00
2021,08,19,06,59,0.00
2021,08,19,07,00,0.00
2021,08,19,07,01,0.10
2021,08,19,07,02,0.00
2021,08,19,07,03,0.00
2021,08,19,07,04,0.00
2021,08,19,07,05,0.20
2021,08,19,07,06,1.90
2021,08,19,07,07,2.30
2021,08,19,07,08,1.20
2021,08,19,07,09,0.10
2021,08,19,07,10,0.70
2021,08,19,07,11,0.40
2021,08,19,07,12,0.90
2021,08,19,07,13,2.70
2021,08,19,07,14,1.30
2021,08,19,07,15,0.10
2021,08,19,07,16,0.00
2021,08,19,07,17,0.00
2021,08,19,07,18,0.00
2021,08,19,07,19,0.00
2021,08,19,07,20,0.00
2021,08,19,07,21,0.00
2021,08,19,07,22,0.00
2021,08,19,07,23,0.00
2021,08,19,07,24,0.00
2021,08,19,07,25,0.00
2021,08,19,07,26,0.00
2021,08,19,07,27,0.00
2021,08,19,07,28,0.00
2021,08,19,07,29,0.00
2021,08,19,07,30,0.00
2021,08,19,07,31,0.00
2021,08,19,07,32,0.00
2021,08,19,07,33,0.00
2021,08,19,07,34,0.00
2021,08,19,07,35,0.00
2021,08,19,07,36,0.00
2021,08,19,07,37,0.00
2021,08,19,07,38,0.00
2021,08,19,07,39,0.00
2021,08,19,07,40,0.00
2021,08,19,07,41,0.00
2021,08,19,07,42,0.00
2021,08,19,07,43,0.00
2021,08,19,07,44,0.00
2021,08,19,07,45,0.00
2021,08,19,07,46,0.00
2021,08,19,07,47,0.00
2021,08,19,07,48,0.00
2021,08,19,07,49,0.00
2021,08,19,07,50,0.00
2021,08,19,07,51,0.00
2021,08,19,07,52,0.00
2021,08,19,07,53,0.00
2021,08,19,07,54,0.00
2021,08,19,07,55,0.00
2021,08,19,07,56,0.00
2021,08,19,07,57,0.00
2021,08,19,07,58,0.00
2021,08,19,07,59,0.00
2021,08,19,08,00,0.00
2021,08,19,08,01,0.00
2021,08,19,08,02,0.00
2021,08,19,08,03,0.00
2021,08,19,08,04,0.00
2021,08,19,08,05,0.00
2021,08,19,08,06,0.00
2021,08,19,08,07,0.00
2021,08,19,08,08,0.00
2021,08,19,08,09,0.00
2021,08,19,08,10,0.00
2021,08,19,08,11,0.00
2021,08,19,08,12,0.00
2021,08,19,08,13,0.00
2021,08,19,08,14,0.00
2021,08,19,08,15,0.00
2021,08,19,08,16,0.00
2021,08,19,08,17,0.00
2021,08,19,08,18,0.00
2021,08,19,08,19,0.00
2021,08,19,08,20,0.00
2021,08,19,08,21,0.00
2021,08,19,08,22,0.00
2021,08,19,08,23,0.00
2021,08,19,08,24,0.00
2021,08,19,08,25,0.00
2021,08,19,08,26,0.00
2021,08,19,08,27,0.00
2021,08,19,08,28,0.00
2021,08,19,08,29,0.00
2021,08,19,08,30,0.00
2021,08,19,08,31,0.00
2021,08,19,08,32,0.00
2021,08,19,08,33,0.00
2021,08,19,08,34,0.00
2021,08,19,08,35,0.00
2021,08,19,08,36,0.00
2021,08,19,08,37,0.00
2021,08,19,08,38,0.00
2021,08,19,08,39,0.00
2021,08,19,08,40,0.00
2021,08,19,08,41,0.00
2021,08,19,08,42,0.00
2021,08,19,08,43,0.00
2021,08,19,08,44,2.10
2021,08,19,08,45,0.80
2021,08,19,08,46,0.00
2021,08,19,08,47,0.00
2021,08,19,08,48,0.00
2021,08,19,08,49,0.00
2021,08,19,08,50,0.80
2021,08,19,08,51,1.60
2021,08,19,08,52,1.80
2021,08,19,08,53,2.70
2021,08,19,08,54,1.30
2021,08,19,08,55,2.60
2021,08,19,08,56,1.70
2021,08,19,08,57,1.30
2021,08,19,08,58,0.10
2021,08,19,08,59,0.00
2021,08,19,09,00,1.10
2021,08,19,09,01,5.70
2021,08,19,09,02,4.40
2021,08,19,09,03,4.50
2021,08,19,09,04,2.50
2021,08,19,09,05,5.20
2021,08,19,09,06,4.70
2021,08,19,09,07,2.50
2021,08,19,09,08,4.20
2021,08,19,09,09,3.60
2021,08,19,09,10,3.20
2021,08,19,09,11,1.90
2021,08,19,09,12,4.40
2021,08,19,09,13,4.60
2021,08,19,09,14,3.90
2021,08,19,09,15,4.60
2021,08,19,09,16,7.50
2021,08,19,09,17,7.70
2021,08,19,09,18,8.40
2021,08,19,09,19,7.60
2021,08,19,09,20,6.40
2021,08,19,09,21,5.90
2021,08,19,09,22,4.30
2021,08,19,09,23,6.30
2021,08,19,09,24,5.30
2021,08,19,09,25,3.60
2021,08,19,09,26,3.90
2021,08,19,09,27,5.80
2021,08,19,09,28,3.90
2021,08,19,09,29,6.10
2021,08,19,09,30,6.10
2021,08,19,09,31,5.80
2021,08,19,09,32,4.80
2021,08,19,09,33,0.50
2021,08,19,09,34,4.00
2021,08,19,09,35,3.30
2021,08,19,09,36,4.00
2021,08,19,09,37,2.30
2021,08,19,09,38,3.20
2021,08,19,09,39,3.40
2021,08,19,09,40,7.30
2021,08,19,09,41,5.10
2021,08,19,09,42,3.20
2021,08,19,09,43,3.40
2021,08,19,09,44,2.90
2021,08,19,09,45,8.60
2021,08,19,09,46,6.60
2021,08,19,09,47,5.30
2021,08,19,09,48,8.20
2021,08,19,09,49,4.80
2021,08,19,09,50,9.60
2021,08,19,09,51,6.00
2021,08,19,09,52,2.20
2021,08,19,09,53,4.10
2021,08,19,09,54,3.20
2021,08,19,09,55,3.60
2021,08,19,09,56,2.50
2021,08,19,09,57,5.20
2021,08,19,09,58,6.20
2021,08,19,09,59,6.10
2021,08,19,10,00,4.10
2021,08,19,10,01,2.50
2021,08,19,10,02,3.20
2021,08,19,10,03,3.20
2021,08,19,10,04,1.70
2021,08,19,10,05,5.20
2021,08,19,10,06,4.00
2021,08,19,10,07,3.10
2021,08,19,10,08,3.10
2021,08,19,10,09,2.90
2021,08,19,10,10,3.10
2021,08,19,10,11,1.30
2021,08,19,10,12,5.50
2021,08,19,10,13,5.00
2021,08,19,10,14,3.70
2021,08,19,10,15,6.10
2021,08,19,10,16,5.80
2021,08,19,10,17,4.40
2021,08,19,10,18,7.10
2021,08,19,10,19,8.20
2021,08,19,10,20,9.80
2021,08,19,10,21,9.00
2021,08,19,10,22,4.20
2021,08,19,10,23,5.50
2021,08,19,10,24,7.40
2021,08,19,10,25,5.90
2021,08,19,10,26,4.40
2021,08,19,10,27,4.50
2021,08,19,10,28,4.00
2021,08,19,10,29,5.00
2021,08,19,10,30,9.40
2021,08,19,10,31,5.90
2021,08,19,10,32,4.70
2021,08,19,10,33,8.50
2021,08,19,10,34,7.50
2021,08,19,10,35,6.80
2021,08,19,10,36,7.90
2021,08,19,10,37,9.40
2021,08,19,10,38,9.70
2021,08,19,10,39,11.70
2021,08,19,10,40,8.30
2021,08,19,10,41,8.90
2021,08,19,10,42,13.60
2021,08,19,10,43,10.80
2021,08,19,10,44,10.30
2021,08,19,10,45,7.90
2021,08,19,10,46,9.00
2021,08,19,10,47,7.50
2021,08,19,10,48,9.50
2021,08,19,10,49,10.50
2021,08,19,10,50,7.50
2021,08,19,10,51,6.30
2021,08,19,10,52,5.20
2021,08,19,10,53,7.10
2021,08,19,10,54,7.60
2021,08,19,10,55,5.20
2021,08,19,10,56,8.30
2021,08,19,10,57,10.50
2021,08,19,10,58,6.50
2021,08,19,10,59,5.70
2021,08,19,11,00,4.80
2021,08,19,11,01,7.50
2021,08,19,11,02,9.50
2021,08,19,11,03,8.20
2021,08,19,11,04,6.90
2021,08,19,11,05,5.40
2021,08,19,11,06,3.20
2021,08,19,11,07,3.20
2021,08,19,11,08,3.50
2021,08,19,11,09,7.80
2021,08,19,11,10,7.00
2021,08,19,11,11,5.00
2021,08,19,11,12,7.80
2021,08,19,11,13,7.90
2021,08,19,11,14,4.70
2021,08,19,11,15,4.70
2021,08,19,11,16,8.20
2021,08,19,11,17,7.40
2021,08,19,11,18,5.60
2021,08,19,11,19,5.10
2021,08,19,11,20,4.20
2021,08,19,11,21,5.10
2021,08,19,11,22,7.70
2021,08,19,11,23,4.30
2021,08,19,11,24,3.50
2021,08,19,11,25,2.90
2021,08,19,11,26,3.90
2021,08,19,11,27,4.80
2021,08,19,11,28,5.50
2021,08,19,11,29,2.90
2021,08,19,11,30,4.20
2021,08,19,11,31,12.20
2021,08,19,11,32,7.30
2021,08,19,11,33,5.50
2021,08,19,11,34,5.20
2021,08,19,11,35,6.60
2021,08,19,11,36,10.90
2021,08,19,11,37,7.90
2021,08,19,11,38,4.90
2021,08,19,11,39,7.20
2021,08,19,11,40,8.90
2021,08,19,11,41,6.80
2021,08,19,11,42,5.60
2021,08,19,11,43,4.30
2021,08,19,11,44,14.20
2021,08,19,11,45,15.10
2021,08,19,11,46,9.00
2021,08,19,11,47,6.70
2021,08,19,11,48,5.80
2021,08,19,11,49,6.00
2021,08,19,11,50,3.90
2021,08,19,11,51,2.90
2021,08,19,11,52,4.80
2021,08,19,11,53,2.90
2021,08,19,11,54,4.90
2021,08,19,11,55,7.80
2021,08,19,11,56,7.10
2021,08,19,11,57,7.60
2021,08,19,11,58,9.40
2021,08,19,11,59,6.90
2021,08,19,12,00,7.50
2021,08,19,12,01,8.60
2021,08,19,12,02,9.00
2021,08,19,12,03,7.10
2021,08,19,12,04,4.30
2021,08,19,12,05,7.20
2021,08,19,12,06,8.30
2021,08,19,12,07,7.80
2021,08,19,12,08,15.60
2021,08,19,12,09,5.30
2021,08,19,12,10,5.10
2021,08,19,12,11,12.10
2021,08,19,12,12,7.90
2021,08,19,12,13,10.30
2021,08,19,12,14,11.30
2021,08,19,12,15,6.80
2021,08,19,12,16,10.60
2021,08,19,12,17,7.10
2021,08,19,12,18,6.40
2021,08,19,12,19,5.90
2021,08,19,12,20,3.80
2021,08,19,12,21,4.20
2021,08,19,12,22,8.80
2021,08,19,12,23,7.30
2021,08,19,12,24,8.30
2021,08,19,12,25,4.40
2021,08,19,12,26,3.40
2021,08,19,12,27,7.20
2021,08,19,12,28,16.00
2021,08,19,12,29,13.20
2021,08,19,12,30,17.60
2021,08,19,12,31,8.10
2021,08,19,12,32,8.90
2021,08,19,12,33,8.20
2021,08,19,12,34,4.90
2021,08,19,12,35,10.20
2021,08,19,12,36,9.30
2021,08,19,12,37,6.50
2021,08,19,12,38,3.90
2021,08,19,12,39,4.20
2021,08,19,12,40,10.70
2021,08,19,12,41,13.90
2021,08,19,12,42,4.70
2021,08,19,12,43,8.10
2021,08,19,12,44,11.20
2021,08,19,12,45,12.00
2021,08,19,12,46,17.30
2021,08,19,12,47,12.40
2021,08,19,12,48,4.30
2021,08,19,12,49,9.70
2021,08,19,12,50,9.70
2021,08,19,12,51,10.50
2021,08,19,12,52,8.50
2021,08,19,12,53,12.10
2021,08,19,12,54,5.90
2021,08,19,12,55,3.10
2021,08,19,12,56,4.20
2021,08,19,12,57,11.20
2021,08,19,12,58,8.80
2021,08,19,12,59,16.80
2021,08,19,13,00,17.10
2021,08,19,13,01,12.20
2021,08,19,13,02,11.20
2021,08,19,13,03,17.10
2021,08,19,13,04,12.10
2021,08,19,13,05,11.50
2021,08,19,13,06,10.20
2021,08,19,13,07,11.60
2021,08,19,13,08,14.00
2021,08,19,13,09,7.80
2021,08,19,13,10,10.30
2021,08,19,13,11,16.40
2021,08,19,13,12,19.70
2021,08,19,13,13,15.90
2021,08,19,13,14,13.30
2021,08,19,13,15,14.00
2021,08,19,13,16,17.10
2021,08,19,13,17,15.50
2021,08,19,13,18,14.20
2021,08,19,13,19,15.80
2021,08,19,13,20,18.60
2021,08,19,13,21,19.10
2021,08,19,13,22,13.00
2021,08,19,13,23,17.90
2021,08,19,13,24,12.60
2021,08,19,13,25,12.40
2021,08,19,13,26,14.20
2021,08,19,13,27,18.10
2021,08,19,13,28,15.60
2021,08,19,13,29,16.00
2021,08,19,13,30,16.20
2021,08,19,13,31,17.10
2021,08,19,13,32,19.10
2021,08,19,13,33,15.20
2021,08,19,13,34,14.10
2021,08,19,13,35,15.00
2021,08,19,13,36,13.60
2021,08,19,13,37,20.10
2021,08,19,13,38,19.10
2021,08,19,13,39,18.30
2021,08,19,13,40,16.10
2021,08,19,13,41,16.80
2021,08,19,13,42,12.80
2021,08,19,13,43,23.20
2021,08,19,13,44,21.90
2021,08,19,13,45,13.30
2021,08,19,13,46,13.00
2021,08,19,13,47,11.30
2021,08,19,13,48,19.80
2021,08,19,13,49,20.50
2021,08,19,13,50,16.40
2021,08,19,13,51,19.00
2021,08,19,13,52,16.30
2021,08,19,13,53,20.10
2021,08,19,13,54,25.70
2021,08,19,13,55,23.30
2021,08,19,13,56,14.30
2021,08,19,13,57,20.70
2021,08,19,13,58,21.30
2021,08,19,13,59,21.30
2021,08,19,14,00,25.20
2021,08,19,14,01,18.40
2021,08,19,14,02,15.60
2021,08,19,14,03,22.20
2021,08,19,14,04,17.90
2021,08,19,14,05,12.60
2021,08,19,14,06,13.20
2021,08,19,14,07,17.10
2021,08,19,14,08,22.30
2021,08,19,14,09,16.60
2021,08,19,14,10,19.50
2021,08,19,14,11,17.20
2021,08,19,14,12,20.80
2021,08,19,14,13,17.50
2021,08,19,14,14,15.30
2021,08,19,14,15,19.30
2021,08,19,14,16,14.00
2021,08,19,14,17,9.90
2021,08,19,14,18,13.80
2021,08,19,14,19,25.20
2021,08,19,14,20,19.10
2021,08,19,14,21,18.70
2021,08,19,14,22,14.20
2021,08,19,14,23,9.60
2021,08,19,14,24,18.30
2021,08,19,14,25,16.70
2021,08,19,14,26,16.90
2021,08,19,14,27,13.50
2021,08,19,14,28,11.60
2021,08,19,14,29,12.40
2021,08,19,14,30,9.20
2021,08,19,14,31,13.10
2021,08,19,14,32,15.30
2021,08,19,14,33,16.10
2021,08,19,14,34,16.80
2021,08,19,14,35,9.50
2021,08,19,14,36,13.80
2021,08,19,14,37,8.60
2021,08,19,14,38,10.40
2021,08,19,14,39,17.70
2021,08,19,14,40,14.90
2021,08,19,14,41,6.60
2021,08,19,14,42,12.40
2021,08,19,14,43,18.10
2021,08,19,14,44,9.00
2021,08,19,14,45,13.10
2021,08,19,14,46,6.70
2021,08,19,14,47,7.40
2021,08,19,14,48,11.00
2021,08,19,14,49,15.60
2021,08,19,14,50,18.30
2021,08,19,14,51,19.70
2021,08,19,14,52,12.90
2021,08,19,14,53,16.90
2021,08,19,14,54,20.50
2021,08,19,14,55,17.00
2021,08,19,14,56,17.30
2021,08,19,14,57,12.60
2021,08,19,14,58,20.60
2021,08,19,14,59,12.50
2021,08,19,15,00,8.60
2021,08,19,15,01,10.10
2021,08,19,15,02,7.00
2021,08,19,15,03,9.50
2021,08,19,15,04,6.40
2021,08,19,15,05,7.10
2021,08,19,15,06,10.00
2021,08,19,15,07,8.10
2021,08,19,15,08,7.50
2021,08,19,15,09,14.50
2021,08,19,15,10,8.40
2021,08,19,15,11,12.80
2021,08,19,15,12,14.20
2021,08,19,15,13,10.90
2021,08,19,15,14,4.20
2021,08,19,15,15,14.70
2021,08,19,15,16,13.50
2021,08,19,15,17,10.10
2021,08,19,15,18,10.00
2021,08,19,15,19,5.80
2021,08,19,15,20,5.00
2021,08,19,15,21,11.30
2021,08,19,15,22,11.70
2021,08,19,15,23,6.80
2021,08,19,15,24,8.40
2021,08,19,15,25,9.20
2021,08,19,15,26,7.50
2021,08,19,15,27,4.20
2021,08,19,15,28,7.10
2021,08,19,15,29,13.90
2021,08,19,15,30,21.10
2021,08,19,15,31,14.60
2021,08,19,15,32,13.00
2021,08,19,15,33,18.20
2021,08,19,15,34,11.80
2021,08,19,15,35,12.10
2021,08,19,15,36,16.10
2021,08,19,15,37,16.00
2021,08,19,15,38,16.50
2021,08,19,15,39,18.90
2021,08,19,15,40,19.70
2021,08,19,15,41,11.70
2021,08,19,15,42,9.70
2021,08,19,15,43,14.80
2021,08,19,15,44,5.20
2021,08,19,15,45,9.50
2021,08,19,15,46,12.30
2021,08,19,15,47,18.00
2021,08,19,15,48,8.50
2021,08,19,15,49,14.10
2021,08,19,15,50,11.80
2021,08,19,15,51,8.10
2021,08,19,15,52,9.70
2021,08,19,15,53,7.40
2021,08,19,15,54,9.00
2021,08,19,15,55,5.50
2021,08,19,15,56,4.10
2021,08,19,15,57,11.70
2021,08,19,15,58,14.50
2021,08,19,15,59,16.40
2021,08,19,16,00,13.80
2021,08,19,16,01,14.60
2021,08,19,16,02,15.90
2021,08,19,16,03,10.70
2021,08,19,16,04,17.80
2021,08,19,16,05,17.90
2021,08,19,16,06,17.80
2021,08,19,16,07,15.20
2021,08,19,16,08,9.10
2021,08,19,16,09,17.10
2021,08,19,16,10,10.80
2021,08,19,16,11,13.90
2021,08,19,16,12,16.40
2021,08,19,16,13,14.00
2021,08,19,16,14,9.90
2021,08,19,16,15,14.10
2021,08,19,16,16,9.40
2021,08,19,16,17,14.60
2021,08,19,16,18,14.60
2021,08,19,16,19,17.40
2021,08,19,16,20,14.80
2021,08,19,16,21,12.90
2021,08,19,16,22,7.00
2021,08,19,16,23,11.30
2021,08,19,16,24,12.90
2021,08,19,16,25,13.20
2021,08,19,16,26,16.30
2021,08,19,16,27,14.00
2021,08,19,16,28,15.20
2021,08,19,16,29,17.90
2021,08,19,16,30,18.60
2021,08,19,16,31,13.60
2021,08,19,16,32,6.70
2021,08,19,16,33,12.10
2021,08,19,16,34,15.10
2021,08,19,16,35,16.10
2021,08,19,16,36,19.20
2021,08,19,16,37,18.40
2021,08,19,16,38,19.30
2021,08,19,16,39,18.30
2021,08,19,16,40,18.00
2021,08,19,16,41,20.00
2021,08,19,16,42,15.60
2021,08,19,16,43,15.80
2021,08,19,16,44,11.20
2021,08,19,16,45,12.40
2021,08,19,16,46,18.30
2021,08,19,16,47,11.30
2021,08,19,16,48,18.40
2021,08,19,16,49,16.00
2021,08,19,16,50,17.80
2021,08,19,16,51,12.80
2021,08,19,16,52,13.20
2021,08,19,16,53,14.90
2021,08,19,16,54,15.50
2021,08,19,16,55,13.20
2021,08,19,16,56,11.00
2021,08,19,16,57,12.20
2021,08,19,16,58,12.50
2021,08,19,16,59,9.30
2021,08,19,17,00,13.20
2021,08,19,17,01,11.70
2021,08,19,17,02,14.90
2021,08,19,17,03,13.90
2021,08,19,17,04,11.60
2021,08,19,17,05,14.40
2021,08,19,17,06,16.40
2021,08,19,17,07,15.20
2021,08,19,17,08,12.40
2021,08,19,17,09,11.90
2021,08,19,17,10,10.70
2021,08,19,17,11,7.40
2021,08,19,17,12,11.40
2021,08,19,17,13,9.80
2021,08,19,17,14,4.90
2021,08,19,17,15,8.80
2021,08,19,17,16,5.60
2021,08,19,17,17,12.80
2021,08,19,17,18,10.40
2021,08,19,17,19,9.40
2021,08,19,17,20,9.50
2021,08,19,17,21,12.80
2021,08,19,17,22,14.60
2021,08,19,17,23,13.20
2021,08,19,17,24,14.50
2021,08,19,17,25,10.20
2021,08,19,17,26,9.00
2021,08,19,17,27,16.00
2021,08,19,17,28,11.80
2021,08,19,17,29,11.10
2021,08,19,17,30,12.10
2021,08,19,17,31,7.80
2021,08,19,17,32,6.90
2021,08,19,17,33,10.00
2021,08,19,17,34,10.60
2021,08,19,17,35,15.00
2021,08,19,17,36,13.50
2021,08,19,17,37,11.70
2021,08,19,17,38,12.10
2021,08,19,17,39,14.80
2021,08,19,17,40,13.60
2021,08,19,17,41,14.40
2021,08,19,17,42,15.70
2021,08,19,17,43,13.70
2021,08,19,17,44,13.70
2021,08,19,17,45,11.70
2021,08,19,17,46,15.90
2021,08,19,17,47,14.10
2021,08,19,17,48,15.10
2021,08,19,17,49,20.10
2021,08,19,17,50,21.10
2021,08,19,17,51,17.40
2021,08,19,17,52,13.30
2021,08,19,17,53,11.00
2021,08,19,17,54,13.00